When you browse on this site, cookies collect data to enhance your experience and personalize the content and advertising you see.
Visit our Privacy Policy to learn more. By continuing to use the site, you agree to this use of cookies and data.
  • In Slovakia
  • List of Countries
  • For 7 days
  • Water Temperature
  • Weather Map
  • Weather Widgets
  • user-avatar
    Login

    Hourly Weather Ordino

    Today, 20 January, Monday

    Time Temperature Precipitation Wind Pressure Humidity
    00:00 -10°C° 0 mm 4 mps 635 mmHg 81%
    01:00 -9°C° 0 mm 3 mps 635 mmHg 80%
    02:00 -9°C° 0 mm 3 mps 635 mmHg 78%
    03:00 -9°C° 0 mm 3 mps 634 mmHg 77%
    04:00 -9°C° 0 mm 3 mps 634 mmHg 78%
    05:00 -9°C° 0 mm 3 mps 635 mmHg 79%
    06:00 -9°C° 0 mm 3 mps 635 mmHg 79%
    07:00 -8°C° 0.1 mm 3 mps 635 mmHg 78%
    08:00 -7°C° 0.1 mm 3 mps 636 mmHg 77%
    09:00 -6°C° 0.1 mm 3 mps 637 mmHg 76%
    10:00 -5°C° 0.1 mm 3 mps 637 mmHg 74%
    11:00 -4°C° 0.1 mm 3 mps 638 mmHg 72%
    12:00 -2°C° 0.1 mm 3 mps 638 mmHg 70%
    13:00 -2°C° 0 mm 3 mps 638 mmHg 72%
    14:00 -2°C° 0 mm 3 mps 637 mmHg 73%
    15:00 -2°C° 0 mm 3 mps 637 mmHg 75%
    16:00 -4°C° 0 mm 3 mps 637 mmHg 78%
    17:00 -5°C° 0 mm 3 mps 637 mmHg 82%
    18:00 -5°C° 0 mm 2 mps 637 mmHg 86%
    19:00 -5°C° 0 mm 2 mps 637 mmHg 85%
    20:00 -5°C° 0 mm 2 mps 637 mmHg 83%
    21:00 -5°C° 0 mm 2 mps 637 mmHg 82%
    22:00 -5°C° 0 mm 2 mps 637 mmHg 81%
    23:00 -5°C° 0 mm 2 mps 636 mmHg 80%

    Tomorrow, 21 January, Tuesday

    Time Temperature Precipitation Wind Pressure Humidity
    00:00 -5°C° 0 mm 2 mps 636 mmHg 79%
    01:00 -4°C° 0.3 mm 2 mps 636 mmHg 81%
    02:00 -4°C° 0.3 mm 2 mps 636 mmHg 82%
    03:00 -4°C° 0.3 mm 2 mps 636 mmHg 84%
    04:00 -4°C° 0.7 mm 2 mps 636 mmHg 86%
    05:00 -4°C° 0.7 mm 2 mps 635 mmHg 88%
    06:00 -4°C° 0.7 mm 2 mps 635 mmHg 91%
    07:00 -3°C° 0.7 mm 2 mps 636 mmHg 90%
    08:00 -2°C° 0.7 mm 2 mps 636 mmHg 89%
    09:00 -1°C° 0.7 mm 2 mps 637 mmHg 88%
    10:00 +1°C° 0.6 mm 2 mps 637 mmHg 86%
    11:00 +1°C° 0.6 mm 3 mps 637 mmHg 85%
    12:00 +2°C° 0.6 mm 3 mps 637 mmHg 83%
    13:00 +2°C° 0.5 mm 3 mps 637 mmHg 85%
    14:00 +2°C° 0.5 mm 2 mps 636 mmHg 86%
    15:00 +2°C° 0.5 mm 2 mps 636 mmHg 88%
    16:00 +1°C° 0.8 mm 2 mps 636 mmHg 91%
    17:00 +1°C° 0.8 mm 2 mps 635 mmHg 93%
    18:00 -1°C° 0.8 mm 2 mps 635 mmHg 96%
    19:00 -1°C° 1.1 mm 2 mps 635 mmHg 96%
    20:00 -1°C° 1.1 mm 2 mps 635 mmHg 96%
    21:00 -1°C° 1.1 mm 2 mps 635 mmHg 95%
    22:00 -1°C° 2.8 mm 2 mps 634 mmHg 96%
    23:00 -1°C° 2.8 mm 2 mps 634 mmHg 97%

    Day after tomorrow, 22 January, Wednesday

    Time Temperature Precipitation Wind Pressure Humidity
    00:00 -1°C° 2.8 mm 2 mps 634 mmHg 97%
    01:00 -1°C° 4.1 mm 2 mps 634 mmHg 97%
    02:00 -1°C° 4.1 mm 2 mps 634 mmHg 98%
    03:00 -1°C° 4.1 mm 2 mps 633 mmHg 98%
    04:00 -1°C° 4.3 mm 2 mps 633 mmHg 98%
    05:00 +2°C° 4.3 mm 1 mps 633 mmHg 98%
    06:00 +2°C° 4.3 mm 1 mps 633 mmHg 99%
    07:00 +2°C° 3 mm 1 mps 633 mmHg 99%
    08:00 +2°C° 3 mm 1 mps 633 mmHg 99%
    09:00 +2°C° 3 mm 1 mps 633 mmHg 99%
    10:00 +2°C° 3.9 mm 1 mps 633 mmHg 99%
    11:00 +2°C° 3.9 mm 1 mps 633 mmHg 99%
    12:00 +2°C° 3.9 mm 1 mps 632 mmHg 99%
    13:00 +1°C° 3.5 mm 2 mps 632 mmHg 99%
    14:00 +1°C° 3.5 mm 2 mps 631 mmHg 99%
    15:00 +1°C° 3.5 mm 2 mps 631 mmHg 99%
    16:00 +1°C° 3.9 mm 2 mps 631 mmHg 99%
    17:00 +1°C° 3.9 mm 2 mps 631 mmHg 99%
    18:00 +1°C° 3.9 mm 2 mps 631 mmHg 99%
    19:00 +1°C° 5.8 mm 2 mps 631 mmHg 99%
    20:00 +1°C° 5.8 mm 2 mps 631 mmHg 99%
    21:00 +1°C° 5.8 mm 2 mps 631 mmHg 99%
    22:00 +1°C° 1.4 mm 2 mps 631 mmHg 98%
    23:00 +1°C° 1.4 mm 2 mps 631 mmHg 97%

    23 January, Thursday

    Time Temperature Precipitation Wind Pressure Humidity
    00:00 +1°C° 1.4 mm 2 mps 631 mmHg 96%
    01:00 -1°C° 0.1 mm 2 mps 632 mmHg 96%
    02:00 -1°C° 0.1 mm 2 mps 632 mmHg 96%
    03:00 -1°C° 0.1 mm 2 mps 632 mmHg 96%
    04:00 -2°C° 0 mm 2 mps 632 mmHg 95%
    05:00 -2°C° 0 mm 2 mps 631 mmHg 94%
    06:00 -3°C° 0 mm 2 mps 631 mmHg 93%
    07:00 -2°C° 0 mm 2 mps 632 mmHg 91%
    08:00 -2°C° 0 mm 2 mps 632 mmHg 89%
    09:00 +1°C° 0 mm 1 mps 633 mmHg 87%
    10:00 +2°C° 0 mm 1 mps 633 mmHg 89%
    11:00 +3°C° 0 mm 1 mps 633 mmHg 91%
    12:00 +4°C° 0 mm 1 mps 634 mmHg 93%
    13:00 +3°C° 0 mm 1 mps 633 mmHg 93%
    14:00 +3°C° 0 mm 1 mps 633 mmHg 93%
    15:00 +3°C° 0 mm 1 mps 633 mmHg 93%
    16:00 +1°C° 0 mm 1 mps 632 mmHg 89%
    17:00 -2°C° 0 mm 2 mps 632 mmHg 86%
    18:00 -4°C° 0 mm 2 mps 631 mmHg 83%
    19:00 -4°C° 0 mm 2 mps 631 mmHg 80%
    20:00 -4°C° 0 mm 2 mps 632 mmHg 77%
    21:00 -4°C° 0 mm 2 mps 632 mmHg 74%
    22:00 -4°C° 0 mm 2 mps 632 mmHg 73%
    23:00 -4°C° 0 mm 2 mps 632 mmHg 73%

    24 January, Friday

    Time Temperature Precipitation Wind Pressure Humidity
    00:00 -4°C° 0 mm 2 mps 632 mmHg 72%
    01:00 -4°C° 0 mm 2 mps 631 mmHg 71%
    02:00 -4°C° 0 mm 2 mps 631 mmHg 71%
    03:00 -4°C° 0 mm 2 mps 631 mmHg 70%
    04:00 -4°C° 0 mm 2 mps 631 mmHg 69%
    05:00 -4°C° 0 mm 2 mps 631 mmHg 68%
    06:00 -4°C° 0 mm 2 mps 631 mmHg 67%
    07:00 -4°C° 0 mm 2 mps 631 mmHg 69%
    08:00 -1°C° 0 mm 1 mps 632 mmHg 71%
    09:00 0°C° 0 mm 1 mps 632 mmHg 74%
    10:00 +2°C° 0 mm 1 mps 633 mmHg 80%
    11:00 +3°C° 0 mm 1 mps 633 mmHg 86%
    12:00 +3°C° 0 mm 0 mps 633 mmHg 91%
    13:00 +3°C° 0 mm 0 mps 633 mmHg 92%
    14:00 +3°C° 0 mm 0 mps 633 mmHg 93%
    15:00 +3°C° 0 mm 0 mps 632 mmHg 94%
    16:00 +2°C° 0 mm 1 mps 632 mmHg 91%
    17:00 0°C° 0 mm 1 mps 632 mmHg 87%
    18:00 -1°C° 0 mm 1 mps 631 mmHg 84%
    19:00 -2°C° 0 mm 1 mps 631 mmHg 83%
    20:00 -2°C° 0 mm 1 mps 631 mmHg 81%
    21:00 -4°C° 0 mm 2 mps 631 mmHg 80%
    22:00 -4°C° 0 mm 2 mps 631 mmHg 81%
    23:00 -4°C° 0 mm 2 mps 632 mmHg 83%

    25 January, Saturday

    Time Temperature Precipitation Wind Pressure Humidity
    00:00 -4°C° 0 mm 2 mps 632 mmHg 84%
    01:00 -4°C° 0 mm 2 mps 631 mmHg 85%
    02:00 -4°C° 0 mm 2 mps 631 mmHg 85%
    03:00 -2°C° 0 mm 1 mps 631 mmHg 86%
    04:00 -2°C° 0 mm 1 mps 631 mmHg 86%
    05:00 -2°C° 0 mm 1 mps 631 mmHg 86%
    06:00 -3°C° 0 mm 1 mps 631 mmHg 86%
    07:00 -1°C° 0 mm 1 mps 631 mmHg 87%
    08:00 0°C° 0 mm 1 mps 632 mmHg 88%
    09:00 +1°C° 0 mm 1 mps 633 mmHg 89%
    10:00 +2°C° 0 mm 1 mps 633 mmHg 90%
    11:00 +3°C° 0 mm 1 mps 633 mmHg 92%
    12:00 +4°C° 0 mm 1 mps 633 mmHg 93%
    13:00 +3°C° 0 mm 1 mps 633 mmHg 94%
    14:00 +3°C° 0 mm 1 mps 632 mmHg 94%
    15:00 +2°C° 0 mm 0 mps 632 mmHg 94%
    16:00 +1°C° 0 mm 0 mps 632 mmHg 94%
    17:00 +1°C° 0 mm 0 mps 632 mmHg 93%
    18:00 0°C° 0 mm 0 mps 632 mmHg 93%
    19:00 0°C° 0 mm 1 mps 632 mmHg 91%
    20:00 -1°C° 0 mm 1 mps 632 mmHg 90%
    21:00 -1°C° 0 mm 1 mps 632 mmHg 88%
    22:00 -2°C° 0 mm 1 mps 632 mmHg 87%
    23:00 -2°C° 0 mm 1 mps 632 mmHg 87%
    Show more